Starlink 34898

operational
NORAD ID: 65895 Int'l Des: 2025-224 Owner: SPXS Country: US Constellation: starlink
LEOCIRCULAR

About Starlink 34898

Description loading...

Live Position

Loading 3D Globe...

Upcoming Passes

Altitude History

Altitude vs Time

uPlot chart will show altitude changes over time

Two-Line Element Set

1 65895U 25224P 26062.15219949 .00022087 00000-0 75552-3 0 9990
2 65895 53.1588 41.6870 0001078 87.0674 273.0450 15.30204188 23872
Epoch: Mar 3, 2026 • Age: 21 hours

Current Status

Altitude 480.7 km
Velocity 7.63 km/s
Sub-Earth Point -19.27°S, 90.22°W
Launch Date Oct 7, 2025
Age 0.4 years
Type internet

Technical Details

Classification Payload
Mass 575.00 kg
Dry Mass 530.00 kg
Total Mass 575.00 kg
Length 0.30 m
Diameter 4.10 m
Span 29.00 m
Shape Box + pan
Manufacturer SPXS
Bus Type Starlink V2MO
Phase Status In Orbit
Owner/State SPXS/US

Large Constellations

Loading constellations...